�������l�o���
Date,Time,MP-1(��Sv/h),MP-2(��Sv/h),MP-3(��Sv/h),MP-4(��Sv/h),MP-5(��Sv/h),MP-6(��Sv/h),MP-7(��Sv/h),MP-8(��Sv/h),����,����(m/s),���J
2023/12/15,00:00,0.510,0.773,0.482,0.972,0.697,0.312,0.562,0.525,�k��,5.9,��
2023/12/15,00:10,0.511,0.774,0.484,0.971,0.696,0.312,0.560,0.524,�k��,5.4,��
2023/12/15,00:20,0.510,0.775,0.482,0.973,0.696,0.311,0.562,0.524,�k��,5.3,��
2023/12/15,00:30,0.508,0.775,0.481,0.973,0.697,0.313,0.560,0.525,�k��,5.3,��
2023/12/15,00:40,0.509,0.773,0.485,0.972,0.698,0.311,0.561,0.525,�k��,4.7,��
2023/12/15,00:50,0.510,0.773,0.482,0.972,0.696,0.311,0.560,0.524,�k��,4.4,��
2023/12/15,01:00,0.510,0.774,0.482,0.972,0.697,0.311,0.562,0.526,�k��,5.4,��
2023/12/15,01:10,0.510,0.773,0.482,0.972,0.696,0.312,0.560,0.524,�k��,4.2,��
2023/12/15,01:20,0.511,0.772,0.483,0.974,0.697,0.311,0.559,0.524,�k��,4.4,��
2023/12/15,01:30,0.511,0.776,0.482,0.974,0.696,0.312,0.559,0.524,�k��,4.4,��
2023/12/15,01:40,0.509,0.775,0.482,0.973,0.696,0.312,0.559,0.523,�k��,4.6,��
2023/12/15,01:50,0.512,0.772,0.483,0.973,0.698,0.312,0.560,0.523,�k��,3.8,��
2023/12/15,02:00,0.509,0.775,0.483,0.972,0.695,0.311,0.560,0.524,�k�k��,3.5,��
2023/12/15,02:10,0.509,0.774,0.483,0.973,0.696,0.310,0.559,0.525,�k��,3.9,��
2023/12/15,02:20,0.510,0.776,0.483,0.973,0.697,0.312,0.559,0.525,�k�k��,3.5,��
2023/12/15,02:30,0.511,0.774,0.483,0.972,0.696,0.311,0.560,0.523,�k�k��,3.0,��
2023/12/15,02:40,0.509,0.773,0.484,0.973,0.697,0.311,0.560,0.525,�k��,2.3,��
2023/12/15,02:50,0.511,0.773,0.483,0.972,0.696,0.311,0.561,0.524,�k��,1.9,��
2023/12/15,03:00,0.510,0.773,0.483,0.973,0.697,0.312,0.560,0.524,�k,1.2,��
2023/12/15,03:10,0.511,0.773,0.484,0.973,0.698,0.311,0.560,0.524,���k��,1.4,��
2023/12/15,03:20,0.511,0.774,0.484,0.973,0.699,0.311,0.559,0.525,���k��,2.0,��
2023/12/15,03:30,0.509,0.774,0.482,0.973,0.697,0.311,0.560,0.525,���k��,2.0,��
2023/12/15,03:40,0.511,0.773,0.484,0.973,0.696,0.311,0.562,0.525,�k��,2.0,��
2023/12/15,03:50,0.511,0.774,0.483,0.973,0.698,0.311,0.561,0.525,�k��,1.7,��
2023/12/15,04:00,0.510,0.774,0.483,0.975,0.698,0.312,0.560,0.525,�k��,2.3,��
2023/12/15,04:10,0.512,0.776,0.482,0.974,0.697,0.312,0.559,0.524,�k��,2.9,��
2023/12/15,04:20,0.509,0.775,0.482,0.971,0.698,0.313,0.561,0.526,�k��,2.6,��
2023/12/15,04:30,0.512,0.773,0.485,0.972,0.698,0.313,0.561,0.523,�k��,2.8,��
2023/12/15,04:40,0.510,0.774,0.484,0.972,0.697,0.314,0.561,0.525,�k��,2.6,��
2023/12/15,04:50,0.512,0.775,0.483,0.975,0.697,0.313,0.561,0.524,�k�k��,2.2,��
2023/12/15,05:00,0.511,0.774,0.484,0.975,0.698,0.313,0.561,0.524,�k��,2.3,��
2023/12/15,05:10,0.510,0.776,0.482,0.972,0.699,0.312,0.560,0.526,�k�k��,2.2,��
2023/12/15,05:20,0.512,0.776,0.483,0.973,0.699,0.312,0.561,0.524,�k��,2.6,��
2023/12/15,05:30,0.511,0.775,0.483,0.974,0.699,0.312,0.561,0.525,�k��,2.8,��
2023/12/15,05:40,0.511,0.775,0.483,0.972,0.697,0.312,0.560,0.524,�k��,3.3,��
2023/12/15,05:50,0.512,0.773,0.485,0.974,0.699,0.312,0.561,0.525,�k��,3.3,��
2023/12/15,06:00,0.511,0.774,0.483,0.974,0.700,0.312,0.560,0.526,�k��,3.3,��
2023/12/15,06:10,0.511,0.776,0.483,0.973,0.698,0.312,0.561,0.525,�k��,3.1,��
2023/12/15,06:20,0.512,0.776,0.483,0.975,0.700,0.313,0.560,0.525,�k��,2.5,��
2023/12/15,06:30,0.512,0.774,0.483,0.973,0.696,0.311,0.560,0.526,�k��,3.0,��
2023/12/15,06:40,0.511,0.776,0.484,0.975,0.698,0.313,0.561,0.525,�k�k��,3.6,�L
2023/12/15,06:50,0.512,0.776,0.483,0.973,0.700,0.312,0.560,0.525,�k�k��,3.5,��
2023/12/15,07:00,0.512,0.776,0.484,0.975,0.699,0.312,0.560,0.526,�k�k��,3.6,�L
2023/12/15,07:10,0.512,0.776,0.481,0.974,0.697,0.312,0.561,0.525,�k��,3.2,�L
2023/12/15,07:20,0.512,0.776,0.483,0.974,0.698,0.312,0.561,0.527,�k��,4.4,�L
2023/12/15,07:30,0.512,0.776,0.486,0.975,0.700,0.313,0.562,0.526,�k��,4.0,�L
2023/12/15,07:40,0.514,0.775,0.484,0.975,0.699,0.313,0.561,0.526,�k�k��,4.6,�L
2023/12/15,07:50,0.513,0.777,0.487,0.976,0.701,0.315,0.563,0.526,�k�k��,4.4,�L
2023/12/15,08:00,0.515,0.775,0.489,0.978,0.698,0.316,0.561,0.525,�k��,2.9,�L
2023/12/15,08:10,0.515,0.774,0.489,0.978,0.699,0.317,0.560,0.525,�k��,2.3,�L
2023/12/15,08:20,0.515,0.774,0.488,0.977,0.697,0.317,0.559,0.526,�k��,2.3,�L
2023/12/15,08:30,0.514,0.773,0.487,0.976,0.696,0.319,0.561,0.526,�k��,2.9,�L
2023/12/15,08:40,0.515,0.773,0.485,0.974,0.697,0.318,0.560,0.527,�k��,4.0,�L
2023/12/15,08:50,0.515,0.771,0.485,0.977,0.695,0.318,0.561,0.526,�k��,4.0,�L
2023/12/15,09:00,0.515,0.773,0.487,0.977,0.697,0.319,0.562,0.525,�k��,4.2,�L
2023/12/15,09:10,0.517,0.772,0.487,0.977,0.697,0.321,0.562,0.526,�k��,5.1,�L
2023/12/15,09:20,0.516,0.771,0.490,0.977,0.697,0.321,0.562,0.525,�k��,5.1,�L
2023/12/15,09:30,0.517,0.770,0.488,0.977,0.694,0.322,0.562,0.526,�k��,5.0,�L
2023/12/15,09:40,0.515,0.772,0.489,0.975,0.696,0.322,0.562,0.526,�k��,5.0,�L
2023/12/15,09:50,0.516,0.771,0.488,0.975,0.695,0.323,0.560,0.525,�k��,4.7,�L
2023/12/15,10:00,0.517,0.769,0.487,0.971,0.696,0.321,0.561,0.526,�k��,4.0,�L
2023/12/15,10:10,0.514,0.769,0.487,0.973,0.692,0.320,0.561,0.525,�k��,3.3,�L
2023/12/15,10:20,0.514,0.768,0.485,0.971,0.691,0.320,0.560,0.524,�k��,3.2,�L
2023/12/15,10:30,0.513,0.765,0.485,0.968,0.692,0.319,0.560,0.525,�k��,3.3,�L
2023/12/15,10:40,0.512,0.765,0.485,0.968,0.689,0.319,0.559,0.524,���k��,2.6,�L
2023/12/15,10:50,0.511,0.763,0.485,0.966,0.689,0.320,0.559,0.524,�k��,2.6,�L
2023/12/15,11:00,0.510,0.763,0.484,0.966,0.690,0.318,0.559,0.524,�k��,2.5,�L
2023/12/15,11:10,0.510,0.763,0.484,0.965,0.687,0.318,0.559,0.523,�k��,2.6,�L
2023/12/15,11:20,0.510,0.763,0.485,0.965,0.687,0.319,0.559,0.524,�k��,3.0,�L
2023/12/15,11:30,0.509,0.762,0.482,0.963,0.689,0.319,0.555,0.524,�k��,2.2,�L
2023/12/15,11:40,0.507,0.762,0.482,0.961,0.687,0.319,0.556,0.524,���k��,2.6,�L
2023/12/15,11:50,0.508,0.762,0.483,0.962,0.687,0.316,0.556,0.524,�k��,3.0,�L
2023/12/15,12:00,0.507,0.761,0.483,0.963,0.685,0.317,0.556,0.524,�k��,2.6,�L
2023/12/15,12:10,0.508,0.761,0.481,0.961,0.686,0.316,0.558,0.524,�k��,2.3,�L
2023/12/15,12:20,0.505,0.760,0.480,0.959,0.686,0.317,0.555,0.523,�k��,3.8,�L
2023/12/15,12:30,0.509,0.760,0.482,0.960,0.684,0.316,0.556,0.523,�k��,4.1,�L
2023/12/15,12:40,0.509,0.760,0.483,0.959,0.683,0.316,0.556,0.523,�k��,3.5,�L
2023/12/15,12:50,0.508,0.759,0.484,0.958,0.685,0.316,0.557,0.522,�k��,3.6,�L
2023/12/15,13:00,0.509,0.761,0.482,0.958,0.683,0.316,0.557,0.524,�k��,3.7,�L
2023/12/15,13:10,0.506,0.758,0.481,0.956,0.687,0.317,0.557,0.523,�k��,3.5,�L
2023/12/15,13:20,0.507,0.758,0.482,0.956,0.685,0.316,0.558,0.523,�k�k��,3.6,�L
2023/12/15,13:30,0.506,0.760,0.482,0.957,0.686,0.317,0.556,0.522,�k��,3.1,�L
2023/12/15,13:40,0.506,0.759,0.481,0.955,0.683,0.317,0.556,0.523,�k�k��,3.7,�L
2023/12/15,13:50,0.506,0.758,0.480,0.953,0.683,0.317,0.556,0.523,�k��,3.1,�L
2023/12/15,14:00,0.506,0.757,0.480,0.952,0.682,0.316,0.555,0.524,���k��,3.0,�L
2023/12/15,14:10,0.503,0.757,0.480,0.953,0.681,0.316,0.557,0.522,�k��,3.4,�L
2023/12/15,14:20,0.502,0.757,0.480,0.953,0.682,0.316,0.556,0.522,�k��,3.5,�L
2023/12/15,14:30,0.505,0.755,0.480,0.953,0.681,0.317,0.557,0.522,�k�k��,3.8,�L
2023/12/15,14:40,0.505,0.757,0.481,0.949,0.678,0.318,0.556,0.523,�k�k��,4.8,�L
2023/12/15,14:50,0.503,0.755,0.480,0.947,0.680,0.316,0.554,0.521,�k�k��,3.1,�L
2023/12/15,15:00,0.505,0.754,0.479,0.949,0.680,0.314,0.553,0.521,�k�k��,3.9,�L
2023/12/15,15:10,0.504,0.756,0.478,0.948,0.680,0.314,0.553,0.522,�k�k��,4.0,�L
2023/12/15,15:20,0.503,0.754,0.477,0.946,0.680,0.312,0.553,0.521,�k�k��,5.2,�L
2023/12/15,15:30,0.500,0.753,0.477,0.948,0.681,0.313,0.553,0.520,�k�k��,4.2,�L
2023/12/15,15:40,0.500,0.753,0.478,0.948,0.678,0.311,0.552,0.520,�k�k��,3.9,�L
2023/12/15,15:50,0.501,0.753,0.476,0.944,0.678,0.312,0.554,0.520,�k,3.7,�L
2023/12/15,16:00,0.500,0.754,0.476,0.944,0.678,0.311,0.553,0.519,�k,4.0,�L
2023/12/15,16:10,0.498,0.753,0.474,0.946,0.677,0.310,0.553,0.519,�k�k��,4.4,�L
2023/12/15,16:20,0.500,0.753,0.475,0.946,0.677,0.311,0.554,0.519,�k�k��,4.0,�L
2023/12/15,16:30,0.498,0.753,0.473,0.945,0.677,0.310,0.553,0.519,�k�k��,2.9,��
2023/12/15,16:40,0.499,0.754,0.475,0.945,0.677,0.311,0.555,0.518,�k,2.6,��
2023/12/15,16:50,0.499,0.753,0.473,0.943,0.677,0.310,0.554,0.518,�k�k��,4.5,��
2023/12/15,17:00,0.499,0.752,0.473,0.945,0.676,0.309,0.552,0.520,�k�k��,5.1,��
2023/12/15,17:10,0.500,0.751,0.473,0.945,0.678,0.310,0.555,0.520,�k�k��,4.9,��
2023/12/15,17:20,0.500,0.752,0.472,0.946,0.677,0.308,0.553,0.519,�k�k��,4.4,��
2023/12/15,17:30,0.499,0.751,0.472,0.943,0.676,0.310,0.556,0.518,�k�k��,4.1,��
2023/12/15,17:40,0.498,0.750,0.473,0.944,0.677,0.310,0.554,0.519,�k�k��,4.0,��
2023/12/15,17:50,0.499,0.753,0.473,0.944,0.678,0.309,0.554,0.519,�k,4.1,��
2023/12/15,18:00,0.499,0.751,0.473,0.943,0.678,0.309,0.555,0.519,�k�k��,4.5,��
2023/12/15,18:10,0.499,0.752,0.473,0.943,0.679,0.309,0.555,0.519,�k�k��,3.9,��
2023/12/15,18:20,0.497,0.753,0.474,0.945,0.677,0.310,0.554,0.517,�k�k��,4.6,��
2023/12/15,18:30,0.499,0.753,0.474,0.946,0.678,0.308,0.555,0.520,�k�k��,4.3,��
2023/12/15,18:40,0.499,0.754,0.472,0.945,0.676,0.309,0.556,0.519,�k�k��,3.9,��
2023/12/15,18:50,0.498,0.755,0.474,0.945,0.677,0.310,0.555,0.519,�k�k��,2.3,��
2023/12/15,19:00,0.498,0.750,0.473,0.943,0.679,0.310,0.554,0.519,�k��,1.2,��
2023/12/15,19:10,0.500,0.754,0.472,0.944,0.678,0.309,0.557,0.521,�k��,1.4,��
2023/12/15,19:20,0.499,0.751,0.473,0.943,0.679,0.311,0.554,0.519,�k��,2.3,��
2023/12/15,19:30,0.499,0.754,0.473,0.946,0.677,0.309,0.556,0.520,�k��,1.9,��
2023/12/15,19:40,0.499,0.754,0.474,0.946,0.680,0.310,0.554,0.520,���k��,1.2,��
2023/12/15,19:50,0.499,0.753,0.473,0.944,0.679,0.310,0.556,0.521,�k��,0.9,��
2023/12/15,20:00,0.500,0.755,0.473,0.946,0.679,0.310,0.555,0.520,�k��,1.4,��
2023/12/15,20:10,0.500,0.753,0.472,0.946,0.677,0.310,0.554,0.519,�k�k��,1.9,��
2023/12/15,20:20,0.499,0.754,0.474,0.944,0.678,0.309,0.555,0.519,�k�k��,1.7,��
2023/12/15,20:30,0.498,0.753,0.473,0.946,0.679,0.311,0.555,0.520,�k,1.9,��
2023/12/15,20:40,0.500,0.755,0.473,0.946,0.679,0.311,0.555,0.519,�k�k��,1.2,��
2023/12/15,20:50,0.500,0.754,0.475,0.947,0.680,0.310,0.553,0.520,�k,1.7,��
2023/12/15,21:00,0.500,0.754,0.474,0.946,0.679,0.310,0.556,0.520,�k�k��,3.7,��
2023/12/15,21:10,0.501,0.754,0.474,0.946,0.681,0.310,0.554,0.519,�k�k��,4.2,��
2023/12/15,21:20,0.501,0.755,0.474,0.945,0.680,0.310,0.555,0.521,�k�k��,3.8,��
2023/12/15,21:30,0.500,0.754,0.474,0.946,0.679,0.310,0.553,0.521,�k,4.1,��
2023/12/15,21:40,0.500,0.755,0.474,0.946,0.681,0.309,0.554,0.520,�k�k��,6.0,��
2023/12/15,21:50,0.499,0.756,0.473,0.946,0.679,0.310,0.554,0.519,�k�k��,7.4,��
2023/12/15,22:00,0.499,0.756,0.472,0.946,0.681,0.311,0.554,0.520,�k�k��,7.2,��
2023/12/15,22:10,0.501,0.755,0.474,0.947,0.681,0.310,0.553,0.520,�k�k��,6.7,��
2023/12/15,22:20,0.502,0.757,0.475,0.948,0.680,0.310,0.554,0.519,�k�k��,6.7,��
2023/12/15,22:30,0.501,0.755,0.473,0.947,0.681,0.310,0.554,0.521,�k�k��,6.7,��
2023/12/15,22:40,0.501,0.756,0.474,0.947,0.680,0.311,0.553,0.521,�k�k��,5.6,��
2023/12/15,22:50,0.500,0.754,0.474,0.949,0.682,0.310,0.554,0.522,�k�k��,5.3,��
2023/12/15,23:00,0.502,0.755,0.474,0.946,0.681,0.311,0.555,0.520,�k�k��,4.7,��
2023/12/15,23:10,0.500,0.756,0.473,0.948,0.681,0.312,0.554,0.522,�k�k��,6.4,��
2023/12/15,23:20,0.501,0.756,0.474,0.949,0.681,0.310,0.555,0.520,�k�k��,6.1,��
2023/12/15,23:30,0.499,0.756,0.475,0.948,0.680,0.311,0.555,0.519,�k,6.0,��
2023/12/15,23:40,0.501,0.755,0.476,0.948,0.681,0.311,0.555,0.521,�k�k��,5.9,��
2023/12/15,23:50,0.502,0.756,0.475,0.947,0.681,0.310,0.554,0.520,�k�k��,4.5,��
